Location: Unspecified
(22.6800°N, 112.2000°E)
Time: 19:54:50
(UTC+08:00)

Transit 2A - All Passes

Search period start: 04 August 2021 00:00
Search period end: 14 August 2021 00:00
Orbit: 598 x 960 km, 66.7° (Epoch: 04 August)

Date Brightness Start Highest point End Pass type
(mag) Time Alt. Az. Time Alt. Az. Time Alt. Az.
04 Aug - 04:45:15 10° S 04:49:13 37° ESE 04:53:16 10° NE visible
04 Aug - 06:31:00 10° WNW 06:32:26 11° WNW 06:33:53 10° NW daylight
04 Aug - 15:22:15 10° NNW 15:28:02 58° ENE 15:34:12 10° SE daylight
04 Aug - 17:07:40 10° WNW 17:10:53 15° WSW 17:14:10 10° SW daylight
05 Aug - 04:11:53 10° SSE 04:15:09 21° ESE 04:18:27 10° ENE visible
05 Aug - 05:54:58 10° WSW 05:58:05 19° WNW 06:01:17 10° NNW daylight
05 Aug - 14:48:23 10° N 14:53:50 38° ENE 14:59:34 10° SE daylight
05 Aug - 16:32:10 10° WNW 16:36:48 23° WSW 16:41:37 10° SSW daylight
06 Aug - 03:39:30 10° SE 03:41:07 12° ESE 03:42:45 10° E visible
06 Aug - 05:19:56 10° SW 05:23:48 32° WNW 05:27:48 10° N visible
06 Aug - 14:14:47 10° N 14:19:34 25° ENE 14:24:34 10° ESE daylight
06 Aug - 15:57:18 10° NW 16:02:42 36° WSW 16:08:23 10° S daylight
07 Aug - 04:45:22 10° SW 04:49:35 58° WNW 04:53:57 10° NNE visible
07 Aug - 13:41:34 10° NNE 13:45:14 17° ENE 13:49:02 10° E daylight
07 Aug - 15:22:45 10° NNW 15:28:35 56° WSW 15:34:43 10° S daylight
08 Aug - 04:11:08 10° SSW 04:15:25 78° ESE 04:19:51 10° NNE visible
08 Aug - 13:09:52 10° NE 13:10:51 10° ENE 13:11:50 10° ENE daylight
08 Aug - 14:48:28 10° NNW 14:54:26 85° WSW 15:00:44 10° SSE daylight
09 Aug - 03:37:15 10° S 03:41:18 42° ESE 03:45:28 10° NE visible
09 Aug - 05:23:55 10° WNW 05:24:36 10° WNW 05:25:17 10° NW visible
09 Aug - 14:14:21 10° NNW 14:20:15 64° ENE 14:26:29 10° SSE daylight
09 Aug - 16:00:14 10° WNW 16:03:03 13° WSW 16:05:56 10° SW daylight
10 Aug - 03:03:48 10° SSE 03:07:14 24° ESE 03:10:45 10° NE visible
10 Aug - 04:47:18 10° WSW 04:50:14 18° WNW 04:53:15 10° NNW visible
10 Aug - 13:40:27 10° N 13:46:02 41° ENE 13:51:54 10° SE daylight
10 Aug - 15:24:31 10° WNW 15:28:59 22° WSW 15:33:36 10° SSW daylight
11 Aug - 02:31:05 10° SE 02:33:12 13° ESE 02:35:20 10° ENE visible
11 Aug - 04:12:10 10° SW 04:15:56 29° WNW 04:19:51 10° N visible
11 Aug - 13:06:47 10° N 13:11:46 28° ENE 13:17:00 10° ESE daylight
11 Aug - 14:49:33 10° NW 14:54:54 33° WSW 15:00:27 10° S daylight
12 Aug - 03:37:31 10° SW 03:41:42 51° WNW 03:46:03 10° N visible
12 Aug - 12:33:28 10° NNE 12:37:28 18° ENE 12:41:36 10° ESE daylight
12 Aug - 14:14:58 10° NW 14:20:46 51° WSW 14:26:52 10° S daylight
13 Aug - 03:03:14 10° SSW 03:07:31 87° ESE 03:11:59 10° NNE visible
13 Aug - 12:01:04 10° NE 12:03:05 12° ENE 12:05:09 10° ENE daylight
13 Aug - 13:40:38 10° NNW 13:46:37 79° WSW 13:52:57 10° SSE daylight
